• In Netherlands
  • List of Countries
  • For 7 days
  • Water Temperature
  • Satellite Maps
  • Weather Map
  • Weather Widgets
  • user-avatar
    Login

    Hourly Weather Kandahar

    Today, 27 June, Tuesday

    Time Temperature Precipitation Wind Pressure Humidity
    00:00 +32°C° 0 mm 2 mps 668 mmHg 8%
    01:00 +31°C° 0 mm 2 mps 668 mmHg 8%
    02:00 +30°C° 0 mm 2 mps 668 mmHg 9%
    03:00 +30°C° 0 mm 2 mps 668 mmHg 9%
    04:00 +29°C° 0 mm 2 mps 668 mmHg 9%
    05:00 +31°C° 0 mm 2 mps 669 mmHg 8%
    06:00 +34°C° 0 mm 2 mps 669 mmHg 8%
    07:00 +35°C° 0 mm 3 mps 670 mmHg 7%
    08:00 +37°C° 0 mm 3 mps 670 mmHg 7%
    09:00 +38°C° 0 mm 3 mps 671 mmHg 7%
    10:00 +40°C° 0 mm 3 mps 671 mmHg 6%
    11:00 +40°C° 0 mm 3 mps 670 mmHg 6%
    12:00 +42°C° 0 mm 3 mps 670 mmHg 5%
    13:00 +43°C° 0 mm 3 mps 670 mmHg 5%
    14:00 +43°C° 0 mm 3 mps 669 mmHg 5%
    15:00 +43°C° 0 mm 3 mps 669 mmHg 5%
    16:00 +43°C° 0 mm 3 mps 668 mmHg 5%
    17:00 +40°C° 0 mm 3 mps 668 mmHg 5%
    18:00 +39°C° 0 mm 3 mps 668 mmHg 6%
    19:00 +37°C° 0 mm 2 mps 667 mmHg 6%
    20:00 +36°C° 0 mm 2 mps 668 mmHg 7%
    21:00 +35°C° 0 mm 2 mps 668 mmHg 7%
    22:00 +34°C° 0 mm 2 mps 668 mmHg 8%
    23:00 +32°C° 0 mm 2 mps 668 mmHg 9%

    Tomorrow, 28 June, Wednesday

    Time Temperature Precipitation Wind Pressure Humidity
    00:00 +31°C° 0 mm 2 mps 668 mmHg 10%
    01:00 +31°C° 0 mm 1 mps 667 mmHg 11%
    02:00 +30°C° 0 mm 1 mps 667 mmHg 11%
    03:00 +29°C° 0 mm 1 mps 667 mmHg 12%
    04:00 +29°C° 0 mm 1 mps 667 mmHg 13%
    05:00 +31°C° 0 mm 1 mps 668 mmHg 12%
    06:00 +32°C° 0 mm 1 mps 669 mmHg 11%
    07:00 +34°C° 0 mm 1 mps 669 mmHg 10%
    08:00 +37°C° 0 mm 2 mps 670 mmHg 9%
    09:00 +38°C° 0 mm 2 mps 670 mmHg 8%
    10:00 +39°C° 0 mm 2 mps 670 mmHg 8%
    11:00 +40°C° 0 mm 2 mps 670 mmHg 8%
    12:00 +41°C° 0 mm 2 mps 670 mmHg 7%
    13:00 +42°C° 0 mm 2 mps 669 mmHg 7%
    14:00 +43°C° 0 mm 3 mps 669 mmHg 7%
    15:00 +43°C° 0 mm 3 mps 669 mmHg 7%
    16:00 +43°C° 0 mm 4 mps 668 mmHg 7%
    17:00 +42°C° 0 mm 4 mps 668 mmHg 8%
    18:00 +41°C° 0 mm 4 mps 668 mmHg 8%
    19:00 +40°C° 0 mm 4 mps 668 mmHg 9%
    20:00 +38°C° 0 mm 4 mps 668 mmHg 10%
    21:00 +37°C° 0 mm 3 mps 668 mmHg 11%
    22:00 +36°C° 0 mm 3 mps 668 mmHg 13%
    23:00 +35°C° 0 mm 3 mps 668 mmHg 17%

    Day after tomorrow, 29 June, Thursday

    Time Temperature Precipitation Wind Pressure Humidity
    00:00 +34°C° 0 mm 3 mps 668 mmHg 21%
    01:00 +33°C° 0 mm 4 mps 668 mmHg 25%
    02:00 +31°C° 0 mm 3 mps 668 mmHg 29%
    03:00 +30°C° 0 mm 2 mps 668 mmHg 34%
    04:00 +29°C° 0 mm 2 mps 668 mmHg 39%
    05:00 +30°C° 0 mm 2 mps 669 mmHg 37%
    06:00 +31°C° 0 mm 1 mps 669 mmHg 35%
    07:00 +32°C° 0 mm 1 mps 670 mmHg 33%
    08:00 +33°C° 0 mm 1 mps 670 mmHg 29%
    09:00 +35°C° 0 mm 1 mps 670 mmHg 25%
    10:00 +36°C° 0 mm 1 mps 670 mmHg 21%
    11:00 +38°C° 0 mm 2 mps 670 mmHg 18%
    12:00 +39°C° 0 mm 2 mps 670 mmHg 15%
    13:00 +41°C° 0 mm 2 mps 670 mmHg 13%
    14:00 +42°C° 0 mm 3 mps 669 mmHg 12%
    15:00 +43°C° 0 mm 3 mps 669 mmHg 11%
    16:00 +43°C° 0 mm 4 mps 668 mmHg 10%
    17:00 +42°C° 0 mm 4 mps 668 mmHg 10%
    18:00 +41°C° 0 mm 4 mps 668 mmHg 10%
    19:00 +40°C° 0 mm 5 mps 668 mmHg 9%
    20:00 +38°C° 0 mm 4 mps 668 mmHg 10%
    21:00 +37°C° 0 mm 4 mps 668 mmHg 10%
    22:00 +36°C° 0 mm 4 mps 668 mmHg 10%
    23:00 +35°C° 0 mm 4 mps 667 mmHg 11%

    30 June, Friday

    Time Temperature Precipitation Wind Pressure Humidity
    00:00 +34°C° 0 mm 3 mps 667 mmHg 11%
    01:00 +33°C° 0 mm 3 mps 667 mmHg 11%
    02:00 +33°C° 0 mm 3 mps 667 mmHg 12%
    03:00 +31°C° 0 mm 2 mps 666 mmHg 12%
    04:00 +30°C° 0 mm 2 mps 666 mmHg 13%
    05:00 +31°C° 0 mm 2 mps 667 mmHg 12%
    06:00 +34°C° 0 mm 2 mps 667 mmHg 11%
    07:00 +35°C° 0 mm 2 mps 668 mmHg 10%
    08:00 +37°C° 0 mm 2 mps 668 mmHg 9%
    09:00 +39°C° 0 mm 2 mps 668 mmHg 8%
    10:00 +40°C° 0 mm 2 mps 668 mmHg 7%
    11:00 +42°C° 0 mm 3 mps 668 mmHg 7%
    12:00 +43°C° 0 mm 4 mps 668 mmHg 6%
    13:00 +45°C° 0 mm 5 mps 667 mmHg 6%
    14:00 +46°C° 0 mm 5 mps 667 mmHg 6%
    15:00 +46°C° 0 mm 6 mps 667 mmHg 6%
    16:00 +46°C° 0 mm 6 mps 666 mmHg 5%
    17:00 +44°C° 0 mm 6 mps 666 mmHg 6%
    18:00 +42°C° 0 mm 5 mps 666 mmHg 7%
    19:00 +41°C° 0 mm 5 mps 666 mmHg 8%
    20:00 +39°C° 0 mm 5 mps 666 mmHg 9%
    21:00 +37°C° 0 mm 5 mps 666 mmHg 10%
    22:00 +36°C° 0 mm 4 mps 666 mmHg 11%
    23:00 +35°C° 0 mm 4 mps 666 mmHg 12%

    1 July, Saturday

    Time Temperature Precipitation Wind Pressure Humidity
    00:00 +34°C° 0 mm 3 mps 666 mmHg 12%
    01:00 +32°C° 0 mm 2 mps 666 mmHg 13%
    02:00 +31°C° 0 mm 2 mps 666 mmHg 13%
    03:00 +31°C° 0 mm 2 mps 666 mmHg 13%
    04:00 +30°C° 0 mm 2 mps 666 mmHg 13%
    05:00 +31°C° 0 mm 1 mps 666 mmHg 12%
    06:00 +33°C° 0 mm 1 mps 667 mmHg 11%
    07:00 +35°C° 0 mm 1 mps 668 mmHg 9%
    08:00 +36°C° 0 mm 1 mps 668 mmHg 8%
    09:00 +39°C° 0 mm 1 mps 668 mmHg 7%
    10:00 +40°C° 0 mm 1 mps 668 mmHg 6%
    11:00 +41°C° 0 mm 2 mps 668 mmHg 6%
    12:00 +43°C° 0 mm 3 mps 668 mmHg 5%
    13:00 +45°C° 0 mm 3 mps 668 mmHg 5%
    14:00 +45°C° 0 mm 4 mps 667 mmHg 4%
    15:00 +46°C° 0 mm 5 mps 667 mmHg 4%
    16:00 +46°C° 0 mm 5 mps 667 mmHg 4%
    17:00 +45°C° 0 mm 5 mps 667 mmHg 4%
    18:00 +42°C° 0 mm 4 mps 666 mmHg 5%
    19:00 +41°C° 0 mm 4 mps 666 mmHg 5%
    20:00 +38°C° 0 mm 4 mps 666 mmHg 6%
    21:00 +37°C° 0 mm 4 mps 667 mmHg 6%
    22:00 +36°C° 0 mm 3 mps 667 mmHg 7%
    23:00 +35°C° 0 mm 3 mps 666 mmHg 8%

    2 July, Sunday

    Time Temperature Precipitation Wind Pressure Humidity
    00:00 +34°C° 0 mm 2 mps 666 mmHg 8%
    01:00 +32°C° 0 mm 2 mps 666 mmHg 9%
    02:00 +31°C° 0 mm 2 mps 666 mmHg 9%
    03:00 +31°C° 0 mm 2 mps 666 mmHg 10%
    04:00 +30°C° 0 mm 2 mps 666 mmHg 11%
    05:00 +31°C° 0 mm 2 mps 667 mmHg 10%
    06:00 +34°C° 0 mm 2 mps 667 mmHg 9%
    07:00 +36°C° 0 mm 2 mps 668 mmHg 8%
    08:00 +37°C° 0 mm 2 mps 668 mmHg 7%
    09:00 +39°C° 0 mm 2 mps 669 mmHg 7%
    10:00 +40°C° 0 mm 2 mps 669 mmHg 6%
    11:00 +41°C° 0 mm 2 mps 669 mmHg 5%
    12:00 +43°C° 0 mm 3 mps 669 mmHg 5%
    13:00 +44°C° 0 mm 3 mps 668 mmHg 4%
    14:00 +44°C° 0 mm 4 mps 668 mmHg 4%
    15:00 +45°C° 0 mm 5 mps 668 mmHg 4%
    16:00 +45°C° 0 mm 5 mps 667 mmHg 4%
    17:00 +43°C° 0 mm 5 mps 667 mmHg 5%
    18:00 +41°C° 0 mm 5 mps 667 mmHg 5%
    19:00 +40°C° 0 mm 4 mps 667 mmHg 6%
    20:00 +38°C° 0 mm 4 mps 667 mmHg 7%
    21:00 +36°C° 0 mm 3 mps 667 mmHg 7%
    22:00 +35°C° 0 mm 2 mps 667 mmHg 8%
    23:00 +34°C° 0 mm 2 mps 667 mmHg 8%
    Show more